When you browse on this site, cookies collect data to enhance your experience and personalize the content and advertising you see.
Visit our Privacy Policy to learn more. By continuing to use the site, you agree to this use of cookies and data.
  • Em Portugal
  • Lista de países
  • Para 7 dias
  • Temperatura da água
  • Mapas de satélite
  • Mapa do tempo
  • Widgets de tempo
  • user-avatar
    Iniciar Sessão

    Previsão horária em Zhlobin

    Hoje, 25 Maio, Sábado

    Tempo Temperatura Precipitação Vento Pressão Humidade
    00:00 +16°C° 0.5 mm 1 m/s 744 mmHg 83%
    01:00 +16°C° 0.5 mm 1 m/s 743 mmHg 85%
    02:00 +15°C° 0 mm 1 m/s 743 mmHg 88%
    03:00 +15°C° 0 mm 1 m/s 743 mmHg 89%
    04:00 +16°C° 0 mm 1 m/s 743 mmHg 89%
    05:00 +16°C° 0 mm 1 m/s 743 mmHg 89%
    06:00 +18°C° 0 mm 1 m/s 743 mmHg 85%
    07:00 +19°C° 0 mm 2 m/s 743 mmHg 80%
    08:00 +20°C° 0 mm 2 m/s 743 mmHg 75%
    09:00 +21°C° 0 mm 2 m/s 743 mmHg 68%
    10:00 +24°C° 0 mm 2 m/s 743 mmHg 61%
    11:00 +25°C° 0 mm 3 m/s 743 mmHg 54%
    12:00 +25°C° 0.8 mm 3 m/s 742 mmHg 58%
    13:00 +25°C° 0.8 mm 3 m/s 742 mmHg 61%
    14:00 +24°C° 0.8 mm 3 m/s 742 mmHg 65%
    15:00 +23°C° 0.1 mm 4 m/s 742 mmHg 63%
    16:00 +23°C° 0.1 mm 4 m/s 742 mmHg 62%
    17:00 +23°C° 0.1 mm 4 m/s 742 mmHg 60%
    18:00 +22°C° 0.1 mm 4 m/s 742 mmHg 67%
    19:00 +20°C° 0.1 mm 3 m/s 742 mmHg 75%
    20:00 +18°C° 0.1 mm 3 m/s 742 mmHg 82%
    21:00 +17°C° 0 mm 3 m/s 742 mmHg 85%
    22:00 +16°C° 0 mm 3 m/s 743 mmHg 87%
    23:00 +14°C° 0 mm 3 m/s 743 mmHg 90%

    Amanhã, 26 Maio, Domingo

    Tempo Temperatura Precipitação Vento Pressão Humidade
    00:00 +14°C° 0 mm 2 m/s 743 mmHg 90%
    01:00 +14°C° 0 mm 2 m/s 743 mmHg 90%
    02:00 +13°C° 0 mm 2 m/s 744 mmHg 90%
    03:00 +13°C° 0 mm 2 m/s 744 mmHg 90%
    04:00 +12°C° 0 mm 3 m/s 744 mmHg 90%
    05:00 +12°C° 0 mm 3 m/s 744 mmHg 90%
    06:00 +14°C° 0 mm 3 m/s 744 mmHg 83%
    07:00 +16°C° 0 mm 3 m/s 745 mmHg 75%
    08:00 +18°C° 0 mm 3 m/s 745 mmHg 68%
    09:00 +19°C° 0 mm 4 m/s 745 mmHg 63%
    10:00 +19°C° 0 mm 4 m/s 745 mmHg 58%
    11:00 +20°C° 0 mm 5 m/s 745 mmHg 53%
    12:00 +21°C° 0 mm 5 m/s 745 mmHg 50%
    13:00 +21°C° 0 mm 5 m/s 745 mmHg 48%
    14:00 +21°C° 0 mm 5 m/s 745 mmHg 45%
    15:00 +21°C° 0 mm 5 m/s 745 mmHg 47%
    16:00 +21°C° 0 mm 5 m/s 744 mmHg 50%
    17:00 +21°C° 0 mm 5 m/s 744 mmHg 52%
    18:00 +19°C° 0 mm 4 m/s 744 mmHg 59%
    19:00 +18°C° 0 mm 3 m/s 745 mmHg 65%
    20:00 +16°C° 0 mm 3 m/s 745 mmHg 72%
    21:00 +16°C° 0 mm 3 m/s 745 mmHg 74%
    22:00 +14°C° 0 mm 3 m/s 745 mmHg 75%
    23:00 +13°C° 0 mm 3 m/s 746 mmHg 77%

    Depois de amanhã, 27 Maio, Segunda-feira

    Tempo Temperatura Precipitação Vento Pressão Humidade
    00:00 +13°C° 0 mm 3 m/s 746 mmHg 80%
    01:00 +12°C° 0 mm 3 m/s 746 mmHg 83%
    02:00 +12°C° 0 mm 2 m/s 746 mmHg 87%
    03:00 +12°C° 0 mm 2 m/s 746 mmHg 87%
    04:00 +12°C° 0 mm 2 m/s 747 mmHg 88%
    05:00 +12°C° 0 mm 2 m/s 747 mmHg 89%
    06:00 +13°C° 0 mm 3 m/s 747 mmHg 81%
    07:00 +16°C° 0 mm 3 m/s 747 mmHg 72%
    08:00 +18°C° 0 mm 4 m/s 747 mmHg 64%
    09:00 +20°C° 0 mm 4 m/s 747 mmHg 60%
    10:00 +21°C° 0 mm 5 m/s 747 mmHg 56%
    11:00 +23°C° 0 mm 5 m/s 747 mmHg 52%
    12:00 +23°C° 0.1 mm 5 m/s 747 mmHg 52%
    13:00 +25°C° 0.1 mm 5 m/s 747 mmHg 52%
    14:00 +25°C° 0.1 mm 5 m/s 747 mmHg 52%
    15:00 +25°C° 0.2 mm 4 m/s 747 mmHg 54%
    16:00 +25°C° 0.2 mm 3 m/s 747 mmHg 56%
    17:00 +25°C° 0.2 mm 3 m/s 747 mmHg 58%
    18:00 +24°C° 0.1 mm 3 m/s 747 mmHg 63%
    19:00 +21°C° 0.1 mm 3 m/s 747 mmHg 68%
    20:00 +20°C° 0.1 mm 2 m/s 747 mmHg 73%
    21:00 +19°C° 0 mm 3 m/s 747 mmHg 77%
    22:00 +18°C° 0 mm 3 m/s 747 mmHg 82%
    23:00 +18°C° 0 mm 3 m/s 747 mmHg 86%

    28 Maio, Terça-feira

    Tempo Temperatura Precipitação Vento Pressão Humidade
    00:00 +18°C° 0 mm 3 m/s 747 mmHg 87%
    01:00 +18°C° 0 mm 3 m/s 747 mmHg 88%
    02:00 +18°C° 0 mm 2 m/s 748 mmHg 89%
    03:00 +18°C° 0 mm 2 m/s 748 mmHg 90%
    04:00 +17°C° 0 mm 2 m/s 748 mmHg 91%
    05:00 +17°C° 0 mm 2 m/s 748 mmHg 91%
    06:00 +19°C° 0 mm 3 m/s 748 mmHg 85%
    07:00 +21°C° 0 mm 3 m/s 748 mmHg 80%
    08:00 +24°C° 0 mm 3 m/s 748 mmHg 74%
    09:00 +25°C° 0 mm 4 m/s 748 mmHg 67%
    10:00 +27°C° 0 mm 5 m/s 747 mmHg 61%
    11:00 +28°C° 0 mm 6 m/s 747 mmHg 54%
    12:00 +29°C° 0.2 mm 6 m/s 747 mmHg 53%
    13:00 +29°C° 0.2 mm 6 m/s 747 mmHg 52%
    14:00 +29°C° 0.2 mm 7 m/s 747 mmHg 50%
    15:00 +29°C° 0 mm 6 m/s 746 mmHg 51%
    16:00 +28°C° 0 mm 6 m/s 746 mmHg 52%
    17:00 +28°C° 0 mm 5 m/s 746 mmHg 52%
    18:00 +26°C° 0 mm 5 m/s 746 mmHg 58%
    19:00 +25°C° 0 mm 4 m/s 746 mmHg 64%
    20:00 +22°C° 0 mm 4 m/s 746 mmHg 70%
    21:00 +21°C° 0 mm 4 m/s 746 mmHg 72%
    22:00 +21°C° 0 mm 4 m/s 747 mmHg 74%
    23:00 +20°C° 0 mm 5 m/s 747 mmHg 76%

    29 Maio, Quarta-feira

    Tempo Temperatura Precipitação Vento Pressão Humidade
    00:00 +20°C° 0 mm 4 m/s 747 mmHg 78%
    01:00 +19°C° 0 mm 4 m/s 747 mmHg 80%
    02:00 +19°C° 0 mm 4 m/s 747 mmHg 82%
    03:00 +18°C° 0 mm 4 m/s 746 mmHg 79%
    04:00 +17°C° 0 mm 5 m/s 746 mmHg 75%
    05:00 +17°C° 0 mm 5 m/s 746 mmHg 72%
    06:00 +19°C° 0 mm 6 m/s 746 mmHg 68%
    07:00 +21°C° 0 mm 7 m/s 746 mmHg 64%
    08:00 +22°C° 0 mm 7 m/s 746 mmHg 60%
    09:00 +23°C° 0 mm 7 m/s 746 mmHg 57%
    10:00 +26°C° 0 mm 7 m/s 746 mmHg 54%
    11:00 +27°C° 0 mm 7 m/s 746 mmHg 51%
    12:00 +28°C° 0 mm 7 m/s 746 mmHg 50%
    13:00 +29°C° 0 mm 7 m/s 746 mmHg 49%
    14:00 +29°C° 0 mm 7 m/s 746 mmHg 48%
    15:00 +29°C° 0.2 mm 7 m/s 745 mmHg 52%
    16:00 +28°C° 0.2 mm 6 m/s 745 mmHg 56%
    17:00 +27°C° 0.2 mm 6 m/s 745 mmHg 60%
    18:00 +26°C° 0.3 mm 5 m/s 745 mmHg 67%
    19:00 +23°C° 0.3 mm 4 m/s 745 mmHg 75%
    20:00 +21°C° 0.3 mm 4 m/s 745 mmHg 82%
    21:00 +21°C° 0.7 mm 3 m/s 745 mmHg 84%
    22:00 +20°C° 0.7 mm 3 m/s 746 mmHg 86%
    23:00 +19°C° 0.7 mm 3 m/s 746 mmHg 88%

    30 Maio, Quinta-feira

    Tempo Temperatura Precipitação Vento Pressão Humidade
    00:00 +19°C° 0.5 mm 2 m/s 746 mmHg 90%
    01:00 +19°C° 0.5 mm 2 m/s 746 mmHg 92%
    02:00 +18°C° 0.5 mm 2 m/s 746 mmHg 93%
    03:00 +18°C° 0.1 mm 2 m/s 747 mmHg 94%
    04:00 +18°C° 0.1 mm 2 m/s 747 mmHg 95%
    05:00 +18°C° 0.1 mm 2 m/s 747 mmHg 96%
    06:00 +18°C° 0 mm 2 m/s 748 mmHg 93%
    07:00 +19°C° 0 mm 3 m/s 749 mmHg 91%
    08:00 +19°C° 0 mm 4 m/s 749 mmHg 88%
    09:00 +19°C° 0 mm 4 m/s 750 mmHg 85%
    10:00 +19°C° 0 mm 4 m/s 750 mmHg 83%
    11:00 +19°C° 0 mm 4 m/s 750 mmHg 80%
    12:00 +19°C° 0 mm 4 m/s 751 mmHg 76%
    13:00 +19°C° 0 mm 4 m/s 751 mmHg 73%
    14:00 +20°C° 0 mm 3 m/s 751 mmHg 69%
    15:00 +20°C° 0 mm 3 m/s 751 mmHg 67%
    16:00 +21°C° 0 mm 3 m/s 751 mmHg 64%
    17:00 +22°C° 0 mm 3 m/s 752 mmHg 61%
    18:00 +20°C° 0 mm 3 m/s 752 mmHg 66%
    19:00 +19°C° 0 mm 3 m/s 752 mmHg 71%
    20:00 +17°C° 0 mm 2 m/s 752 mmHg 75%
    21:00 +16°C° 0 mm 2 m/s 752 mmHg 74%
    22:00 +15°C° 0 mm 2 m/s 752 mmHg 73%
    23:00 +14°C° 0 mm 2 m/s 752 mmHg 72%
    Mostrar mais